Hourly Data Report for May 10, 2012

All times are specified in Local Standard Time (LST). Add 1 hour to adjust for Daylight Saving Time where and when it is observed.

PENTICTON A
BRITISH COLUMBIA

49°27'45.000" N
119°36'08.000" W
344.40 m
1126146
71889
YYF

Download Data

Hourly Data (May 2012)
Hourly Data Report for May 10, 2012
Temp Definition
°C
Dew Point Temp Definition
°C
Rel Hum Definition
%
Wind Dir Definition
10's deg

Wind Spd Definition
km/h
Visibility Definition
km
Stn Press Definition
kPa
Hmdx Definition


Wind Chill Definition


Weather Definition


TIME
00:00 Legend Double Dagger 7.2 -4.9 42 34 7 10.0 98.09     LegendNANA
01:00 Legend Double Dagger 5.2 -4.1 51 4 5 10.0 98.11     Mostly Cloudy
02:00 Legend Double Dagger 6.6 -4.5 45 26 5 10.0 98.16     LegendNANA
03:00 Legend Double Dagger 5.8 -5.5 44 20 5 10.0 98.21     LegendNANA
04:00 Legend Double Dagger 0.9 -4.2 69 3 8 10.0 98.27     Mainly Clear
05:00 Legend Double Dagger 0.6 -4.1 71 6 4 10.0 98.34     LegendNANA
06:00 Legend Double Dagger 3.5 -2.1 67   0 10.0 98.41     LegendNANA
07:00 Legend Double Dagger 8.1 -3.4 44 5 8 10.0 98.43     Mainly Clear
08:00 Legend Double Dagger 8.6 -7.2 32 30 20 10.0 98.43     LegendNANA
09:00 Legend Double Dagger 9.9 -7.3 29 32 17 10.0 98.44     LegendNANA
10:00 Legend Double Dagger 10.4 -7.8 27 31 17 10.0 98.44     Mostly Cloudy
11:00 Legend Double Dagger 11.9 -5.6 29 4 16 10.0 98.41     LegendNANA
12:00 Legend Double Dagger 12.9 -4.7 29 1 14 10.0 98.39     LegendNANA
13:00 Legend Double Dagger 12.5 -5.5 28 35 21 10.0 98.37     Mainly Clear
14:00 Legend Double Dagger 14.1 -4.6 27 2 20 10.0 98.35     LegendNANA
15:00 Legend Double Dagger 13.0 -5.5 27 1 18 10.0 98.30     LegendNANA
16:00 Legend Double Dagger 13.1 -7.0 24 4 22 10.0 98.26     Mainly Clear
17:00 Legend Double Dagger 14.4 -5.9 24 1 23 10.0 98.23     LegendNANA
18:00 Legend Double Dagger 13.4 -7.9 22 34 23 10.0 98.25     LegendNANA
19:00 Legend Double Dagger 11.8 -7.6 25 29 15 10.0 98.25     Mainly Clear
20:00 Legend Double Dagger 10.6 -7.2 28 15 9 10.0 98.30     LegendNANA
21:00 Legend Double Dagger 5.9 -5.7 43 29 7 10.0 98.37     LegendNANA
22:00 Legend Double Dagger 4.9 -5.8 46 32 9 10.0 98.41     Clear
23:00 Legend Double Dagger 2.1 -5.1 59   0 10.0 98.46     LegendNANA

Notes on Data Quality.

Legend

  • E = Estimated
  • M = Missing
  • NA = Not Available
  • ‡ = Partner data that is not subject to review by the National Climate Archives
Date modified: